Regional Weather Roundup
Issued by NWS

Home | Current Version | Previous Version | Text Only | Print | Product List | Glossary On
Versions: 1 2 3 4 5 6 7 8 9 10 11 12 13 14 15 16 17 18 19 20 21 22 23 24 25 26 27 28 29 30 31 32 33 34 35 36 37 38 39 40 41 42 43 44 45 46 47 48 49 50
000
ASUS43 KDTX 301901
RWRMI
MICHIGAN HOURLY REGIONAL WEATHER ROUNDUP
NATIONAL WEATHER SERVICE DETROIT/PONTIAC MI
300 PM EDT MON MAY 30 2016

NOTE: "FAIR" INDICATES FEW OR NO CLOUDS BELOW 12,000 FEET WITH NO
SIGNIFICANT WEATHER AND/OR OBSTRUCTION TO VISIBILITY.

MIZ047>049-052>055-059>063-066>070-074>076-081>083-302000-
SOUTHEAST LOWER MICHIGAN

CITY           SKY/WX    TMP DP  RH WIND       PRES   REMARKS
ADRIAN         MOSUNNY   85  52  32 VRB6      30.00F
ALMA           PTSUNNY   79  55  43 W12       29.99F
ANN ARBOR      MOSUNNY   83  55  38 NW14      29.99F
CARO           PTSUNNY   78  55  46 NW10G16   29.97F
DETROIT CITY   MOSUNNY   83  55  38 VRB6      29.98F
DETROIT        MOSUNNY   81  54  39 VRB3      29.99F
FLINT          PTSUNNY   81  54  39 W12       29.99F
GROSSE ILE     MOSUNNY   79  61  53 SE8       29.98F
HILLSDALE      PTSUNNY   83  40  21 W15       30.01F
HOWELL         MOSUNNY   82  51  33 W8        30.00F

CITY           SKY/WX    TMP DP  RH WIND       PRES   REMARKS
JACKSON        MOSUNNY   80  55  42 NW13G18   30.01F
LAMBERTVILLE   MOSUNNY   84  52  33 NW5       29.99F
LANSING        PTSUNNY   80  56  43 NW10      30.01F
LAPEER         FAIR      79  52  38 W6        30.00S
MASON          PTSUNNY   81  55  40 NW10G18   30.01S
MONROE         MOSUNNY   84  57  39 NW12G20   29.98F
PONTIAC        PTSUNNY   79  53  40 W12       29.99F
PORT HOPE        N/A     79  55  43 VRB7      29.96S
PORT HURON     PTSUNNY   79  57  47 W5        29.99S
TRI CITIES     MOSUNNY   82  55  39 NW12G21   29.98F
MIDLAND        FAIR      81  52  36 W14G22    29.97S
TROY           MOSUNNY   82  52  35 W7        30.01F
SAGINAW HB     SUNNY     81  50  34 W14G21    29.97F
$$
MIZ043>046-050>051-056>058-064>065-071>073-077>080-302000-
SOUTHWEST LOWER MICHIGAN

CITY           SKY/WX    TMP DP  RH WIND       PRES   REMARKS
BATTLE CREEK   MOSUNNY   81  55  40 W10       30.02F
BENTON HARBOR  SUNNY     79  56  45 W5        30.02F
BIG RAPIDS     MOSUNNY   78  49  36 W12G24    30.00F
COLDWATER      MOSUNNY   81  51  35 NW8G18    30.01F
FREMONT        FAIR      80  52  37 NW13G24   30.00F
HOLLAND        SUNNY     79  57  46 SW10      30.03F
GRAND RAPIDS   MOSUNNY   83  55  38 W9        30.01F
IONIA          FAIR      81  49  33 W12G17    29.99F
KALAMAZOO      MOSUNNY   83  54  36 W10G21    30.01F
LUDINGTON      SUNNY     71  59  66 SW7       30.02F
MARSHALL       MOSUNNY   82  54  37 NW10      30.00F
MOUNT PLEASANT MOSUNNY   80  54  40 W10G18    29.98S
MUSKEGON       MOSUNNY   76  56  49 SW10      30.02F
SOUTH HAVEN    SUNNY     76  59  55 W9        30.02F
$$
MIZ016>042-302000-
NORTHERN LOWER MICHIGAN

CITY           SKY/WX    TMP DP  RH WIND       PRES   REMARKS
ALPENA         MOSUNNY   78  49  35 W10G20    29.94S
BEAVER ISLAND  SUNNY     71  55  58 SW15      29.98R
BELLAIRE       SUNNY     74  51  44 NW10G17   29.99S
CADILLAC       SUNNY     77  43  30 W16G23    30.01R
CHARLEVOIX     SUNNY     71  57  61 W13       30.02S
FRANKFORT      SUNNY     70  57  63 SW7       30.02S
GAYLORD        SUNNY     74  47  38 NW13G26   29.99S
GRAYLING       SUNNY     78  46  32 W14G25    29.99S
HARBOR SPRINGS SUNNY     66  56  69 W8        29.98S
HOUGHTON LAKE  SUNNY     77  48  35 NW16G24   29.99S
OSCODA         PTSUNNY   83  46  28 W13G21    29.94S
PELLSTON       MOSUNNY   74  52  46 W10G20    29.96S
ROGERS CITY    MOSUNNY   75  49  40 W12G23    29.95R
TRAVERSE CITY  MOSUNNY   78  46  32 W16G22    29.98S
$$
MIZ007>008-015-302000-
EASTERN UPPER MICHIGAN

CITY           SKY/WX    TMP DP  RH WIND       PRES   REMARKS
KINROSS          N/A     73  46  38 W17G28    29.92R
MACKINAC ISLAN SUNNY     66  55  69 SW15G22   29.95R
NEWBERRY       MOSUNNY   72  51  46 W16G28    29.94S
S. S. MARIE    SUNNY     67  54  63 NW15G23   29.93R
MUNISING         N/A     67  52  58 N9        29.95R
$$
MIZ004>006-011>014-085-302000-
CENTRAL UPPER MICHIGAN

CITY           SKY/WX    TMP DP  RH WIND       PRES   REMARKS
MANISTIQUE     PTSUNNY   72  56  56 S7        29.94S
ESCANABA       PTSUNNY   79  46  31 W12G20    29.94S
MENOMINEE      PTSUNNY   77  46  33 NW5       29.98F
SAWYER-GWINN   MOSUNNY   75  45  33 NW18G29   29.96S
$$
MIZ001>003-009>011-084-302000-
WESTERN UPPER MICHIGAN

CITY           SKY/WX    TMP DP  RH WIND       PRES   REMARKS
IRON MOUNTAIN  MOSUNNY   77  45  32 W16G24    29.97S
HOUGHTON       SUNNY     72  51  47 W22G32    29.93S
COPPER HARBOR    N/A     67  52  58 N20G28    29.91S
IRONWOOD       SUNNY     73  48  40 NW12      29.96S
$$

ABBREVIATIONS USED IN REMARKS
   TC - TEMPERATURE IN CELSIUS
  WCI - WIND CHILL INDEX
   HX - HEAT INDEX
  VSB - VISIBILITY




USA.gov is the U.S. government's official web portal to all federal, state and local government web resources and services.